• In Hungary
  • List of Countries
  • For 7 days
  • Water Temperature
  • Satellite Maps
  • Weather Map
  • News
  • Weather Widgets
  • user-avatar
    Login

    Hourly Weather Rivas

    Today, 18 January, Thursday

    Time Temperature Precipitation Wind Pressure Humidity
    00:00 +26°C° 0 mm 7 mps 754 mmHg 66%
    01:00 +26°C° 0 mm 7 mps 754 mmHg 65%
    02:00 +26°C° 0 mm 7 mps 753 mmHg 64%
    03:00 +26°C° 0 mm 7 mps 753 mmHg 63%
    04:00 +26°C° 0 mm 8 mps 753 mmHg 64%
    05:00 +24°C° 0 mm 8 mps 754 mmHg 64%
    06:00 +24°C° 0 mm 8 mps 754 mmHg 65%
    07:00 +26°C° 0 mm 8 mps 754 mmHg 63%
    08:00 +28°C° 0 mm 8 mps 754 mmHg 61%
    09:00 +29°C° 0 mm 9 mps 755 mmHg 58%
    10:00 +31°C° 0 mm 9 mps 754 mmHg 56%
    11:00 +32°C° 0 mm 9 mps 754 mmHg 53%
    12:00 +33°C° 0 mm 8 mps 754 mmHg 51%
    13:00 +33°C° 0 mm 8 mps 753 mmHg 52%
    14:00 +33°C° 0 mm 8 mps 752 mmHg 53%
    15:00 +33°C° 0 mm 8 mps 751 mmHg 53%
    16:00 +31°C° 0.1 mm 8 mps 752 mmHg 59%
    17:00 +29°C° 0.1 mm 8 mps 752 mmHg 64%
    18:00 +28°C° 0.1 mm 8 mps 752 mmHg 69%
    19:00 +27°C° 0.2 mm 8 mps 753 mmHg 71%
    20:00 +27°C° 0.2 mm 9 mps 754 mmHg 73%
    21:00 +26°C° 0.2 mm 9 mps 754 mmHg 75%
    22:00 +26°C° 0.1 mm 9 mps 754 mmHg 75%
    23:00 +26°C° 0.1 mm 9 mps 754 mmHg 76%

    Tomorrow, 19 January, Friday

    Time Temperature Precipitation Wind Pressure Humidity
    00:00 +26°C° 0.1 mm 9 mps 754 mmHg 76%
    01:00 +26°C° 0.1 mm 9 mps 754 mmHg 76%
    02:00 +26°C° 0.1 mm 9 mps 753 mmHg 76%
    03:00 +26°C° 0.1 mm 9 mps 753 mmHg 76%
    04:00 +26°C° 0.1 mm 9 mps 753 mmHg 76%
    05:00 +26°C° 0.1 mm 9 mps 753 mmHg 76%
    06:00 +26°C° 0.1 mm 9 mps 753 mmHg 76%
    07:00 +27°C° 0.1 mm 10 mps 754 mmHg 72%
    08:00 +28°C° 0.1 mm 10 mps 754 mmHg 68%
    09:00 +29°C° 0.1 mm 10 mps 755 mmHg 64%
    10:00 +31°C° 0 mm 10 mps 754 mmHg 61%
    11:00 +32°C° 0 mm 10 mps 754 mmHg 58%
    12:00 +32°C° 0 mm 9 mps 753 mmHg 55%
    13:00 +32°C° 0.1 mm 9 mps 752 mmHg 56%
    14:00 +32°C° 0.1 mm 9 mps 752 mmHg 57%
    15:00 +32°C° 0.1 mm 8 mps 751 mmHg 57%
    16:00 +31°C° 0.3 mm 8 mps 751 mmHg 63%
    17:00 +29°C° 0.3 mm 8 mps 751 mmHg 68%
    18:00 +27°C° 0.3 mm 8 mps 752 mmHg 73%
    19:00 +27°C° 0.1 mm 8 mps 752 mmHg 75%
    20:00 +27°C° 0.1 mm 8 mps 753 mmHg 76%
    21:00 +26°C° 0.1 mm 9 mps 754 mmHg 77%
    22:00 +26°C° 0 mm 9 mps 753 mmHg 77%
    23:00 +26°C° 0 mm 9 mps 753 mmHg 78%

    Day after tomorrow, 20 January, Saturday

    Time Temperature Precipitation Wind Pressure Humidity
    00:00 +26°C° 0 mm 9 mps 753 mmHg 78%
    01:00 +26°C° 0 mm 9 mps 753 mmHg 79%
    02:00 +26°C° 0 mm 8 mps 752 mmHg 79%
    03:00 +24°C° 0 mm 8 mps 751 mmHg 79%
    04:00 +24°C° 0 mm 8 mps 752 mmHg 79%
    05:00 +24°C° 0 mm 8 mps 752 mmHg 80%
    06:00 +24°C° 0 mm 8 mps 752 mmHg 80%
    07:00 +27°C° 0 mm 8 mps 753 mmHg 76%
    08:00 +28°C° 0 mm 9 mps 753 mmHg 71%
    09:00 +29°C° 0 mm 9 mps 754 mmHg 67%
    10:00 +31°C° 0 mm 9 mps 753 mmHg 63%
    11:00 +32°C° 0 mm 8 mps 753 mmHg 60%
    12:00 +33°C° 0 mm 8 mps 752 mmHg 56%
    13:00 +33°C° 0 mm 8 mps 752 mmHg 56%
    14:00 +33°C° 0 mm 8 mps 751 mmHg 55%
    15:00 +33°C° 0 mm 7 mps 750 mmHg 55%
    16:00 +32°C° 0.1 mm 7 mps 750 mmHg 61%
    17:00 +29°C° 0.1 mm 7 mps 751 mmHg 66%
    18:00 +28°C° 0.1 mm 7 mps 751 mmHg 72%
    19:00 +28°C° 0 mm 7 mps 751 mmHg 75%
    20:00 +27°C° 0 mm 7 mps 752 mmHg 77%
    21:00 +27°C° 0 mm 7 mps 753 mmHg 80%
    22:00 +26°C° 0 mm 7 mps 752 mmHg 81%
    23:00 +26°C° 0 mm 6 mps 752 mmHg 82%

    21 January, Sunday

    Time Temperature Precipitation Wind Pressure Humidity
    00:00 +26°C° 0 mm 6 mps 752 mmHg 83%
    01:00 +26°C° 0 mm 6 mps 752 mmHg 84%
    02:00 +26°C° 0 mm 7 mps 751 mmHg 84%
    03:00 +24°C° 0 mm 7 mps 751 mmHg 84%
    04:00 +24°C° 0 mm 7 mps 751 mmHg 84%
    05:00 +24°C° 0 mm 7 mps 751 mmHg 84%
    06:00 +24°C° 0 mm 7 mps 752 mmHg 84%
    07:00 +26°C° 0 mm 7 mps 752 mmHg 79%
    08:00 +28°C° 0 mm 7 mps 753 mmHg 74%
    09:00 +29°C° 0 mm 8 mps 753 mmHg 69%
    10:00 +31°C° 0 mm 8 mps 753 mmHg 65%
    11:00 +32°C° 0 mm 7 mps 752 mmHg 61%
    12:00 +33°C° 0 mm 7 mps 751 mmHg 57%
    13:00 +33°C° 0 mm 7 mps 750 mmHg 56%
    14:00 +33°C° 0 mm 7 mps 749 mmHg 55%
    15:00 +33°C° 0 mm 7 mps 749 mmHg 55%
    16:00 +32°C° 0 mm 6 mps 749 mmHg 60%
    17:00 +30°C° 0 mm 6 mps 749 mmHg 65%
    18:00 +29°C° 0 mm 6 mps 750 mmHg 70%
    19:00 +28°C° 0 mm 6 mps 750 mmHg 73%
    20:00 +28°C° 0 mm 6 mps 751 mmHg 76%
    21:00 +27°C° 0 mm 6 mps 751 mmHg 79%
    22:00 +27°C° 0 mm 6 mps 751 mmHg 81%
    23:00 +26°C° 0 mm 6 mps 751 mmHg 83%

    22 January, Monday

    Time Temperature Precipitation Wind Pressure Humidity
    00:00 +26°C° 0 mm 6 mps 751 mmHg 85%
    01:00 +26°C° 0.1 mm 6 mps 751 mmHg 86%
    02:00 +26°C° 0.1 mm 6 mps 750 mmHg 86%
    03:00 +26°C° 0.1 mm 6 mps 750 mmHg 86%
    04:00 +26°C° 0.1 mm 6 mps 750 mmHg 86%
    05:00 +24°C° 0.1 mm 6 mps 751 mmHg 86%
    06:00 +24°C° 0.1 mm 6 mps 751 mmHg 86%
    07:00 +27°C° 0.1 mm 6 mps 751 mmHg 81%
    08:00 +28°C° 0.1 mm 7 mps 752 mmHg 75%
    09:00 +29°C° 0.1 mm 7 mps 752 mmHg 69%
    10:00 +30°C° 0.1 mm 7 mps 752 mmHg 65%
    11:00 +32°C° 0.1 mm 7 mps 751 mmHg 61%
    12:00 +33°C° 0.1 mm 6 mps 751 mmHg 57%
    13:00 +33°C° 0.1 mm 7 mps 750 mmHg 57%
    14:00 +33°C° 0.1 mm 7 mps 749 mmHg 57%
    15:00 +33°C° 0.1 mm 7 mps 748 mmHg 58%
    16:00 +32°C° 0.3 mm 7 mps 749 mmHg 64%
    17:00 +29°C° 0.3 mm 7 mps 749 mmHg 70%
    18:00 +28°C° 0.3 mm 6 mps 750 mmHg 76%
    19:00 +27°C° 0.1 mm 6 mps 750 mmHg 78%
    20:00 +27°C° 0.1 mm 7 mps 751 mmHg 80%
    21:00 +26°C° 0.1 mm 7 mps 751 mmHg 82%
    22:00 +26°C° 0 mm 7 mps 751 mmHg 82%
    23:00 +26°C° 0 mm 7 mps 751 mmHg 83%

    23 January, Tuesday

    Time Temperature Precipitation Wind Pressure Humidity
    00:00 +26°C° 0 mm 7 mps 751 mmHg 83%
    01:00 +26°C° 0.1 mm 6 mps 751 mmHg 83%
    02:00 +26°C° 0.1 mm 6 mps 750 mmHg 83%
    03:00 +26°C° 0.1 mm 6 mps 750 mmHg 83%
    04:00 +26°C° 0 mm 7 mps 750 mmHg 83%
    05:00 +26°C° 0 mm 7 mps 751 mmHg 83%
    06:00 +26°C° 0 mm 7 mps 751 mmHg 83%
    07:00 +27°C° 0.1 mm 7 mps 752 mmHg 78%
    08:00 +28°C° 0.1 mm 8 mps 752 mmHg 74%
    09:00 +29°C° 0.1 mm 9 mps 753 mmHg 70%
    10:00 +29°C° 0.2 mm 9 mps 752 mmHg 68%
    11:00 +29°C° 0.2 mm 9 mps 752 mmHg 67%
    12:00 +31°C° 0.2 mm 9 mps 751 mmHg 65%
    13:00 +29°C° 0.3 mm 9 mps 750 mmHg 67%
    14:00 +29°C° 0.3 mm 9 mps 750 mmHg 69%
    15:00 +28°C° 0.3 mm 9 mps 749 mmHg 70%
    16:00 +28°C° 0 mm 9 mps 750 mmHg 73%
    17:00 +27°C° 0 mm 8 mps 750 mmHg 76%
    18:00 +27°C° 0 mm 8 mps 750 mmHg 79%
    19:00 +26°C° 0 mm 8 mps 751 mmHg 80%
    20:00 +26°C° 0 mm 7 mps 751 mmHg 81%
    21:00 +26°C° 0 mm 7 mps 752 mmHg 82%
    22:00 +26°C° 0 mm 7 mps 752 mmHg 82%
    23:00 +26°C° 0 mm 7 mps 751 mmHg 82%
    Show more